KUIPER-00094

导读

KUIPER-00094是美国亚马逊公司(后项目更名Amazon Leo,原Project Kuiper柯伊伯计划)的低轨卫星互联网星座组网卫星,于2025年7月16日发射。该项目计划部署超3200颗低轨卫星,旨在为全球尤其是网络覆盖薄弱地区提供高速低延迟卫星互联网服务,可对接云计算服务,是全球低轨卫星互联网竞争的重要组成部分。

基本信息
目录编号:
64839
目录名称:
KUIPER-00094
国际标识:
2025-151Z
轨道中心:
EARTH
卫星名称:
KUIPER-00094
卫星全名:
KUIPER-00094
卫星状态:
在轨 (已飞行332 天)
发射日期:
2025-07-16 UTC
国别 :
美国 (US)
星等 :
--
轨道信息
数据来源 国际轨道数据 AOE轨道数据
星历时间 2026-06-12T14:00:03+0800
18小时前
查看轨道信息
2026-06-11T03:00:00+0800
2天前
查看轨道信息
半长轴 7006.485km 7005.1km
偏心率 0.000133 0.000149
轨道倾角 51.902° 51.898°
近地点辐角 33.037° 126.218°
升交点赤经 190.003° 196.463°
平近点角 292.742° 341.827°
近地点 627.416km 625.919km
远地点 629.28km 628.007km
周期 97.277分钟 97.248分钟
每日圈数 14.803096 14.807484
详细信息
使用方式:
暂无
2D轨道图
3D轨道图
轨道高度分析图
轨道倾角分析图
轨道综合分析图
查看轨道综合分析图